Flag for Canada Weather past 2 weeks in Strathcona County, Alberta, Canada

Now
75 °F

Mild.


Feels Like: 78 °F
Forecast: 53 / 81 °F
Wind: 6 mph from South

Location: Edmonton Municipal

Current Time: Jul 2, 2015 at 10:59:27 AM

Latest Report: Jul 2, 2015 at 10:00 AM


Visibility: N/A

Pressure: 30.06 "Hg

Humidity: 48%

Dew point: 54 °F

Location of Strathcona CountyLocation

Historic Weather in Strathcona County — Graph

°F

Strathcona County temperature yesterday

Maximum temperature yesterday: 79 °F (at 5:00 PM)
Minimum temperature yesterday: 59 °F (at 6:00 AM)
Average temperature yesterday: 69 °F

Past Weeks' High & Low Weather Summary

 TemperatureHumidityPressure
High89 °F (Jun 28, 4:00 PM)97% (Jun 19, 8:00 PM)30.16 "Hg (Jun 19, 8:00 PM)
Low47 °F (Jun 20, 5:00 AM)18% (Jun 28, 7:00 PM)29.77 "Hg (Jun 19, 2:00 PM)
Average66 °F57%29.98 "Hg
* Reported Jun 17 1:00 PM — Jul 2 10:00 AM, Strathcona County, Weather by CustomWeather, © 2015

Note: Actual official high and low records may vary slightly from our data, if they occured in-between our weather recording intervals... More about our weather records

Advertising

Strathcona County weather history for previous 24 hours

 ConditionsComfort  
Time TempWeatherWind HumidityBarometerVisibility
10:00 AM
Thu, Jul 2
75 °FMild.6 mph48%30.06 "HgN/A
9:00 AM72 °FMild.1 mph59%30.08 "HgN/A
8:00 AM66 °FMild.1 mph74%30.08 "HgN/A
7:00 AM61 °FCool.5 mph85%30.09 "HgN/A
6:00 AM59 °FCool.5 mph88%30.09 "HgN/A
5:00 AM58 °FCool.5 mph92%30.09 "HgN/A
4:00 AM60 °FCool.3 mph87%30.09 "HgN/A
3:00 AM62 °FCool.2 mph83%30.09 "HgN/A
2:00 AM65 °FMild.5 mph79%30.09 "HgN/A
1:00 AM66 °FMild.5 mph76%30.09 "HgN/A
12:00 AM69 °FMild.2 mph71%30.09 "HgN/A
11:00 PM
Wed, Jul 1
71 °FMild.3 mph63%30.09 "HgN/A
10:00 PM73 °FMild.3 mph56%30.07 "HgN/A
9:00 PM76 °FMild.7 mph49%30.06 "HgN/A
8:00 PM77 °FWarm.8 mph44%30.04 "HgN/A
7:00 PM78 °FWarm.9 mph42%30.03 "HgN/A
6:00 PM78 °FWarm.13 mph40%30.03 "HgN/A
5:00 PM79 °FWarm.10 mph44%30.02 "HgN/A
4:00 PM76 °FMild.13 mph49%30.03 "HgN/A
3:00 PM76 °FMild.10 mph50%30.04 "HgN/A
2:00 PM74 °FMild.10 mph57%30.05 "HgN/A
1:00 PM72 °FMild.8 mph60%30.04 "HgN/A
12:00 PM68 °FMild.9 mph69%30.04 "HgN/A
11:00 AM65 °FMild.8 mph75%30.04 "HgN/A
10:00 AM64 °FMild.8 mph78%30.04 "HgN/A
Weather by CustomWeather, © 2015

See weather overviewHow to use our weather pages